Location: Bethersden
(51.1167°N, 0.7667°E)
Time: 13:09:16
(UTC+00:00)

Daily predictions for brighter satellites

Satellite Brightness Start Highest point End
(mag) Time Altitude Azimuth Time Altitude Azimuth Time Altitude Azimuth
BREEZE-M DEB (TANK) 4.4 19:52:27 10° W 19:56:06 75° S 20:07:11 10° ESE
ATLAS 2AS CENTAUR R/B 4.3 19:55:51 10° NW 20:02:45 34° NNE 20:09:14 10° ENE
BREEZE M DEB (TANK) 4.0 20:00:18 10° SW 20:03:59 59° SSE 20:15:38 10° ENE
Intercosmos 25 Rocket 4.3 19:57:22 10° N 20:04:55 82° ENE 20:09:23 10° SSE
Cosmos 1486 Rocket 4.3 20:01:11 10° S 20:06:15 46° ESE 20:11:21 10° NE
Cosmos 1500 Rocket 3.9 20:03:05 10° NNW 20:07:30 70° W 20:11:50 10° S
Cosmos 1833 Rocket 4.0 20:03:06 10° NNW 20:08:03 30° NE 20:12:58 10° ESE
IGS 5A 3.7 20:05:40 10° SSE 20:09:43 55° ENE 20:13:48 10° N
Cosmos 2221 3.3 20:07:44 10° SSW 20:11:59 58° WNW 20:16:17 10° N
BREEZE-M R/B 3.3 20:10:32 10° SSW 20:12:25 18° SSE 20:14:13 10° ESE
S3M 4.2 20:06:39 10° S 20:12:51 57° E 20:19:03 10° NNE
USA 186 4.1 20:12:35 10° SW 20:14:19 16° W 20:15:58 10° NW
Cosmos 1666 Rocket 4.2 20:11:14 10° N 20:15:26 41° ENE 20:19:34 10° SE
USA 215 4.0 20:13:47 10° ENE 20:20:06 54° N 20:26:26 10° WNW
USA 305 3.4 20:18:45 10° WNW 20:22:59 59° N 20:27:13 10° E
Cosmos 1933 3.7 20:19:17 10° SSE 20:23:08 45° E 20:27:01 10° NNE
USA 245 3.4 20:23:41 12° SE 20:25:24 24° ENE 20:27:19 10° N
Cosmos 1242 Rocket 3.1 20:25:16 10° SSE 20:28:38 39° E 20:31:58 10° NNE
OBJECT-B 3.2 20:26:22 10° SSW 20:28:57 22° W 20:31:35 10° NW
Cosmos 1553 Rocket 4.2 20:25:21 10° SSW 20:31:29 80° W 20:37:46 10° N
BREEZE M DEB (TANK) 2.2 20:25:18 10° W 20:31:39 72° S 20:34:07 10° E
Cosmos 773 Rocket 4.5 20:27:03 10° NNW 20:32:14 50° ENE 20:37:01 12° SE
Cosmos 1437 Rocket 2.8 20:28:41 10° SSW 20:32:34 85° WNW 20:36:33 10° NNE
Resurs 01 Rocket 1.8 20:30:53 10° S 20:35:20 75° WSW 20:39:49 10° NNW
Sich 1 3.1 20:33:29 10° NNW 20:37:49 79° W 20:42:10 10° S
COSMOS 2406 3.9 20:33:18 10° NNW 20:38:43 43° NE 20:43:43 12° ESE
Spot 2 Rocket 3.8 20:34:12 11° SE 20:38:58 54° ENE 20:43:54 10° N
SJ 16-02 3.4 20:38:29 10° ESE 20:39:33 11° E 20:40:37 10° ENE
Meteor 1-20 Rocket 4.3 20:35:09 10° NNW 20:40:51 84° W 20:46:23 10° S
Cosmos 2082 Rocket 3.6 20:36:25 10° NNW 20:41:17 29° NE 20:46:06 10° ESE
USA 306 3.3 20:37:55 10° WNW 20:42:09 63° N 20:46:24 10° E
CZ-4C R/B 3.1 20:36:51 10° NW 20:43:42 67° NE 20:51:18 12° ESE
Cosmos 1500 3.9 20:40:56 10° N 20:44:28 37° ENE 20:47:10 15° SE
Gbstr 26 Del rocket 4.3 20:37:55 10° WSW 20:45:53 88° SSE 20:52:42 10° E
Cosmos 1782 3.2 20:43:23 10° SSE 20:47:12 45° E 20:51:02 10° NNE
ERS-1 Rocket 3.4 20:50:52 14° SE 20:54:55 50° ENE 20:59:47 10° N
SPOT 5 3.4 20:52:52 15° SE 20:56:55 51° ENE 21:02:01 10° N
Cosmos 1503 Rocket 3.9 20:51:52 10° SSW 20:56:59 69° ESE 21:02:12 10° NNE
ERBS 4.2 20:55:27 10° WNW 20:58:24 29° N 21:01:22 10° ENE
Intercosmos 24 4.1 20:55:38 10° SSW 20:59:21 62° WNW 21:02:56 10° N
SOZ 4.1 20:57:05 10° WSW 20:59:40 65° SSE 21:01:58 10° ENE
USA 290 3.4 20:57:11 10° NW 21:00:14 37° WSW 21:02:58 12° S
Cosmos 1151 Rocket 3.0 20:58:19 10° S 21:02:38 68° E 21:07:00 10° NNE
CREW DRAGON DEMO-1 DEB 2.4 21:00:10 10° W 21:02:50 82° N 21:04:38 18° E
Cosmos 1602 3.9 20:59:03 10° NNW 21:02:54 72° W 21:06:20 13° S
Terra 2.4 21:02:23 17° SE 21:05:42 43° ENE 21:10:14 10° N
USA 307 3.1 21:03:15 10° WNW 21:07:31 70° NNE 21:11:25 12° E
Cosmos 2278 Rocket 3.1 21:05:44 16° SSE 21:09:14 29° ESE 21:14:03 10° NE
CZ-2C R/B 3.7 21:07:00 10° NNE 21:11:29 84° WNW 21:16:00 10° SSW
SL-4 R/B 4.5 21:16:14 10° WSW 21:18:33 14° SW 21:20:57 10° SSW
X-37B 2.0 21:17:16 10° WSW 21:19:49 22° SSW 21:20:09 22° S
Cosmos 1515 Rocket 3.9 21:17:35 20° SSE 21:20:23 49° E 21:24:39 10° NNE
USA 308 3.0 21:16:44 10° WNW 21:21:02 77° NNE 21:24:24 16° ESE
SWARM C 4.4 21:17:44 10° N 21:21:03 78° E 21:22:52 25° S
SWARM A 4.1 21:17:50 10° N 21:21:10 81° E 21:23:01 24° S
Cosmos 1844 Rocket 3.4 21:15:54 10° SW 21:21:21 56° NW 21:26:53 10° NNE
Cosmos 2084 3.9 21:17:53 11° S 21:21:33 36° SE 21:25:28 10° ENE
SPOT 1/Viking Rocket 4.1 21:16:47 11° S 21:21:40 56° W 21:26:48 10° NNW
Cosmos 1536 4.3 21:18:39 10° NNE 21:22:00 24° ENE 21:23:48 18° ESE
ARIANE 5 R/B 2.8 21:20:39 17° S 21:23:57 68° WSW 21:28:18 10° NNW
JB-3 4.2 21:21:13 10° NNE 21:25:10 72° ESE 21:27:55 18° S
Cosmos 1437 2.3 21:25:47 27° S 21:27:11 83° E 21:30:02 10° NNE
Cosmos 1633 Rocket 3.8 21:23:23 10° NNW 21:27:39 50° W 21:31:23 13° SSW
Cosmos 1354 Rocket 4.1 21:23:05 10° SSW 21:28:19 80° WNW 21:33:37 10° NNE
Cosmos 1812 2.7 21:31:31 24° S 21:33:43 67° E 21:37:35 10° NNE
Cosmos 1470 Rocket 3.8 21:32:28 10° NNW 21:36:57 68° W 21:39:57 20° S
Cosmos 2184 Rocket 4.0 21:30:59 10° N 21:37:15 71° ENE 21:41:19 23° SSE
Meteor 1-5 Rocket 4.1 21:32:59 10° NNW 21:38:28 85° W 21:42:00 22° S
Cosmos 1328 Rocket 3.9 21:36:50 10° SSW 21:41:11 64° WNW 21:45:35 10° N
NOSS 3-4 (A) 3.9 21:34:41 10° NW 21:41:31 76° NE 21:47:03 20° SE
NOSS 3-4 (C) 3.9 21:34:47 10° NW 21:41:37 76° NE 21:47:10 20° SE
ATLAS 5 CENTAUR R/B 3.3 21:37:57 10° WNW 21:43:03 36° WSW 21:47:13 18° S
Cosmos 2074 Rocket 4.0 21:38:52 10° N 21:45:13 83° E 21:49:22 23° SSE
CARTOSAT-1 4.4 21:44:07 17° SSW 21:47:07 44° W 21:51:17 10° NNW
Cosmos 1666 2.6 21:46:53 10° NNW 21:50:38 78° W 21:52:12 33° S
Cosmos 1933 Rocket 3.6 21:47:10 10° NNW 21:51:31 72° W 21:53:49 27° S
Cosmos 1833 Rocket 2.8 21:46:50 10° NW 21:52:28 68° WSW 21:55:42 26° S
NOSS 3-3 (A) 3.9 21:46:38 10° SW 21:52:28 79° SE 21:59:13 10° NE
NOSS 3-3 (C) 3.9 21:46:45 10° SW 21:52:35 78° SE 21:59:19 10° NE
ATLAS 2AS CENTAUR R/B 3.2 21:47:38 10° NW 21:55:08 63° NE 22:00:32 18° ESE
Nadezhda 1 Rocket 4.2 21:51:52 25° SSE 21:55:27 54° E 22:01:32 10° NNE
Meteor 2-12 Rocket 4.4 21:49:27 10° N 21:55:34 74° ENE 21:59:02 27° SSE
Cosmos 1743 4.0 21:52:25 10° N 21:55:46 28° ENE 21:56:52 24° E
BREEZE-M DEB (TANK) 2.6 21:56:47 10° W 21:57:57 27° WSW 21:57:57 27° WSW
Cosmos 1538 Rocket 4.2 21:55:45 10° NNW 22:01:06 65° WSW 22:03:56 28° S
BREEZE-M DEB (TANK) 3.3 21:53:01 10° W 22:01:57 82° NNW 22:04:40 11° ENE
USA 215 3.6 21:56:16 10° E 22:02:43 64° NNE 22:09:10 10° WNW
USA 305 2.8 21:58:48 10° WNW 22:03:04 72° SSW 22:04:41 37° SE
Iridium 4 Rocket 3.9 22:01:47 20° S 22:05:51 76° W 22:11:48 10° N
Cosmos 1610 Rocket 4.4 22:01:06 10° N 22:07:18 79° E 22:10:38 29° SSE
Cosmos 158 Rocket 3.8 22:08:31 10° NNW 22:13:25 78° WSW 22:15:28 35° SSE
Cosmos 1733 Rocket 4.1 22:10:45 10° N 22:14:42 33° ENE 22:16:02 27° ESE
SJ 16-02 1.2 22:15:14 31° SSW 22:17:18 81° ESE 22:21:47 10° NNE
Cosmos 1680 Rocket 3.6 22:13:44 10° NNW 22:19:04 69° ENE 22:21:27 33° SE
Cosmos 2228 Rocket 3.0 22:17:34 37° S 22:19:18 83° E 22:23:48 10° NNE
Cosmos 2341 Rocket 4.3 22:13:38 10° N 22:19:57 57° ENE 22:23:08 29° SE
Meteor 1-27 Rocket 3.8 22:18:37 30° S 22:21:36 72° E 22:27:30 10° NNE
USA 306 3.0 22:17:57 10° WNW 22:22:09 58° SSW 22:23:05 46° SSE
COSMOS 2406 4.0 22:17:44 10° NW 22:23:02 41° WSW 22:25:47 25° SSW
Cosmos 1818 4.3 22:18:39 10° NW 22:23:58 48° NE 22:27:40 19° ESE
Cosmos 2082 Rocket 2.2 22:20:16 10° NNW 22:25:53 70° WSW 22:28:19 34° S
H-2A R/B 4.2 22:27:45 10° N 22:31:51 51° WNW 22:34:16 22° SW
CZ-4C R/B 3.6 22:25:30 10° NW 22:32:19 44° WSW 22:36:28 26° S
Gbstr 26 Del rocket 4.1 22:25:54 10° W 22:33:28 88° N 22:39:42 10° E
BREEZE-M R/B 4.3 22:31:27 10° W 22:31:52 14° W 22:31:52 14° W
ERBS 3.7 22:32:00 10° NW 22:35:06 36° NNE 22:37:04 18° ENE
Cosmos 1271 Rocket 3.5 22:35:27 27° SW 22:37:18 50° WNW 22:41:14 10° N
Cosmos 2218 Rocket 4.4 22:33:04 10° N 22:39:11 53° ENE 22:42:06 30° SE
Meteor 1-11 Rocket 4.4 22:36:23 10° NNW 22:42:11 52° W 22:45:14 27° SSW
Terra 3.3 22:41:15 19° SW 22:43:37 29° W 22:47:46 10° NW
Okean 1 3.8 22:46:34 42° ESE 22:46:52 42° E 22:50:40 10° NNE
USA 307 3.3 22:43:20 10° WNW 22:47:25 44° SW 22:47:30 44° SSW
Cosmos 1340 Rocket 2.9 22:44:47 10° NNW 22:48:52 72° W 22:49:40 54° SSW
Cosmos 2278 Rocket 2.7 22:47:29 10° SW 22:53:01 58° NW 22:58:38 10° NNE
Cosmos 923 Rocket 4.4 22:49:03 10° NNW 22:54:09 52° WSW 22:55:53 36° SSW
Cosmos 1544 3.5 22:51:19 10° NNW 22:54:49 50° W 22:55:12 47° WSW
Spot 4 3.8 22:53:27 45° SSE 22:54:57 86° WSW 22:59:52 10° NNW
Cosmos 1515 3.7 22:55:28 60° ESE 22:55:38 60° E 22:59:22 10° NNE
Cosmos 1862 Rocket 3.8 22:57:00 46° ESE 22:57:35 49° E 23:01:47 10° NNE
Cosmos 1536 3.9 22:54:46 10° NNW 22:58:31 36° W 22:59:30 31° SW
Cosmos 1898 Rocket 3.5 22:57:39 43° S 22:59:14 65° ESE 23:04:33 10° NNE
USA 308 3.7 22:56:52 10° WNW 23:00:29 36° SW 23:00:29 36° SW
Cosmos 2369 Rocket 3.4 23:03:27 24° ESE 23:04:10 25° ESE 23:08:39 10° NE
RESURS DK-1 4.3 23:03:54 10° NNW 23:07:26 26° NE 23:09:52 16° E
Gblst 52 Del rocket 4.4 23:01:04 10° W 23:08:06 87° S 23:14:11 10° ESE
Meteor 2-9 Rocket 4.2 23:02:36 10° NNW 23:08:29 82° ENE 23:10:35 41° SSE
COBE Rocket 4.2 23:07:04 39° SE 23:08:45 60° ENE 23:13:49 10° N
SL-8 Rocket 4.0 23:02:33 10° N 23:08:56 87° W 23:11:34 38° S
Cosmos 1975 2.9 23:07:46 10° N 23:11:45 63° ENE 23:12:12 57° ESE
Cosmos 2084 Rocket 3.4 23:08:03 10° NW 23:12:19 82° NE 23:13:20 52° ESE
Cosmos 1943 Rocket 2.5 23:11:55 41° SSE 23:13:14 50° ESE 23:18:37 10° NE
SAR-Lupe-2 4.1 23:11:17 10° NNE 23:14:31 45° E 23:14:31 45° E
ALOS 2 2.5 23:16:04 58° SSE 23:16:56 90° NNE 23:21:22 10° NNW
Cosmos 44 3.5 23:14:00 10° NW 23:19:26 66° SW 23:20:48 48° S
DNEPR-1 R/B 4.4 23:19:56 43° SSE 23:20:51 47° SE 23:25:38 10° NE
Cosmos 1707 Rocket 4.0 23:20:01 40° SW 23:21:15 55° WNW 23:25:37 10° N
Meteor 2-4 Rocket 4.2 23:20:31 37° SE 23:22:14 48° E 23:27:40 10° NNE
Cosmos 990 Rocket 4.1 23:20:01 34° SW 23:22:18 73° WNW 23:27:36 10° NNE
Okean 1-7 3.7 23:30:15 37° ESE 23:30:40 38° E 23:34:38 10° NNE
Cosmos 1743 4.1 23:28:10 10° NNW 23:31:30 28° W 23:31:55 28° WSW
Cosmos 372 Rocket 4.2 23:30:37 45° SE 23:31:30 51° ESE 23:36:26 10° NNE
Cosmos 1238 Rocket 4.2 23:28:13 10° NNW 23:34:29 56° W 23:36:39 36° SSW
Meteor 1-18 Rocket 4.1 23:33:04 44° S 23:34:59 87° ESE 23:40:38 10° NNE
SL-24 R/B - RUBIN 2 4.2 23:31:27 10° NW 23:36:45 48° WSW 23:37:29 44° SSW
SeaSat 1 3.1 23:33:10 10° NE 23:37:47 38° ESE 23:38:19 37° SE
Cosmos 2242 Rocket 3.8 23:40:22 49° SE 23:40:57 54° E 23:45:19 10° NNE
USA 215 3.2 23:42:20 30° SE 23:45:45 68° SW 23:52:17 10° WNW
ATLAS 2AS CENTAUR R/B 3.2 23:39:02 10° NW 23:45:54 43° WSW 23:47:56 35° SSW
Cosmos 2297 3.8 23:45:51 34° SW 23:48:25 76° WNW 23:54:08 10° NNE
Cosmos 1733 Rocket 4.3 23:48:41 10° NNW 23:52:26 29° W 23:53:07 28° WSW
SJ 16-02 3.9 23:53:31 10° W 23:56:30 17° NW 23:59:29 10° N
